Location: Kirkcaldy
(50.3333°N, 113.2333°W)
Time: 08:33:52
(UTC+00:00)

XW-2C - Visible Passes

Search period start: 06 December 2023 00:00
Search period end: 16 December 2023 00:00
Orbit: 463 x 475 km, 97.5° (Epoch: 06 December)

Date Brightness Start Highest point End Pass type
(mag) Time Alt. Az. Time Alt. Az. Time Alt. Az.
06 Dec ? 00:34:19 10° SE 00:37:34 36° ENE 00:40:51 10° N visible
06 Dec ? 02:08:13 10° SW 02:10:49 19° W 02:13:27 10° NW visible
06 Dec ? 13:27:30 10° NE 13:30:19 22° E 13:33:06 10° SE visible
07 Dec ? 00:06:09 10° ESE 00:08:40 19° ENE 00:11:12 10° NNE visible
07 Dec ? 01:38:13 10° S 01:41:33 39° W 01:44:55 10° NNW visible
07 Dec ? 13:00:04 10° ENE 13:00:55 11° E 13:01:46 10° ESE visible
07 Dec ? 14:30:57 10° N 14:34:29 69° WNW 14:38:00 10° SSW visible
08 Dec ? 01:08:50 10° SSE 01:12:22 89° W 01:15:56 10° NNW visible
08 Dec ? 14:01:51 10° NNE 14:05:20 52° E 14:08:47 10° S visible
09 Dec ? 00:39:57 10° SE 00:43:16 41° ENE 00:46:38 10° N visible
09 Dec ? 02:14:13 10° SW 02:16:36 17° W 02:18:59 10° NW visible
09 Dec ? 13:33:04 10° NE 13:36:02 24° E 13:38:58 10° SSE visible
10 Dec ? 00:11:34 10° ESE 00:14:16 21° ENE 00:16:59 10° NNE visible
10 Dec ? 01:43:58 10° SSW 01:47:12 34° W 01:50:29 10° NNW visible
10 Dec ? 13:05:05 10° ENE 13:06:33 12° E 13:08:03 10° ESE visible
10 Dec ? 14:36:33 10° N 14:40:04 59° WNW 14:43:32 10° SSW visible
11 Dec ? 01:14:23 10° S 01:17:55 78° WSW 01:21:29 10° NNW visible
11 Dec ? 14:07:19 10° NNE 14:10:50 61° ESE 14:14:19 10° S visible
12 Dec ? 00:45:19 10° SE 00:48:43 47° ENE 00:52:08 10° N visible
12 Dec ? 02:19:58 10° SW 02:22:05 15° W 02:24:13 10° NW visible
12 Dec ? 13:38:22 10° NE 13:41:28 27° E 13:44:31 10° SSE visible
13 Dec ? 00:16:44 10° ESE 00:19:35 23° ENE 00:22:28 10° NNE visible
13 Dec ? 01:49:27 10° SSW 01:52:35 30° W 01:55:46 10° NNW visible
13 Dec ? 13:10:03 10° ENE 13:11:56 14° E 13:13:48 10° ESE visible
13 Dec ? 14:41:54 10° N 14:45:21 51° WNW 14:48:47 10° SSW visible
14 Dec ? 01:19:40 10° S 01:23:11 68° WSW 01:26:44 10° NNW visible
14 Dec ? 14:12:32 10° NNE 14:16:04 70° ESE 14:19:33 10° S visible
15 Dec ? 00:50:26 10° SSE 00:53:52 53° ENE 00:57:20 10° N visible
15 Dec ? 02:25:31 10° WSW 02:27:19 13° W 02:29:07 10° WNW visible
15 Dec ? 13:43:25 10° NNE 13:46:37 31° E 13:49:46 10° SSE visible
